| time (UTC) | temp C | wind direction | speed KPH | gust KPH | rain 1hr cm | rain 24hr cm | rain mn cm | humidity % | barometer mb |
| 20260507222516 | 17 | 315 | 1.6 | 4.8 | 0.00 | 0.38 | 0.08 | 54 | 1014.4 |
| 20260507221516 | 18 | 293 | 3.2 | 9.7 | 0.00 | 0.38 | 0.08 | 53 | 1014.6 |
| 20260507220516 | 18 | 293 | 4.8 | 14.5 | 0.00 | 0.38 | 0.08 | 51 | 1014.4 |
| 20260507215516 | 18 | 315 | 3.2 | 12.9 | 0.00 | 0.38 | 0.08 | 54 | 1014.4 |
| 20260507214516 | 17 | 225 | 1.6 | 4.8 | 0.00 | 0.38 | 0.08 | 53 | 1014.0 |
| 20260507213516 | 18 | 315 | 3.2 | 12.9 | 0.00 | 0.38 | 0.08 | 51 | 1013.9 |
| 20260507212516 | 18 | 338 | 3.2 | 6.4 | 0.00 | 0.38 | 0.08 | 55 | 1013.8 |
| 20260507211516 | 17 | 338 | 3.2 | 11.3 | 0.00 | 0.38 | 0.08 | 63 | 1013.8 |
| 20260507210516 | 16 | 293 | 1.6 | 8.0 | 0.00 | 0.38 | 0.08 | 59 | 1013.5 |
| 20260507205516 | 16 | 315 | 3.2 | 8.0 | 0.00 | 0.38 | 0.08 | 57 | 1013.5 |
| 20260507204516 | 16 | 293 | 3.2 | 11.3 | 0.00 | 0.38 | 0.08 | 57 | 1013.5 |
| 20260507203516 | 17 | 23 | 6.4 | 16.1 | 0.00 | 0.38 | 0.08 | 57 | 1013.7 |
| 20260507202536 | 17 | 338 | 3.2 | 11.3 | 0.00 | 0.38 | 0.08 | 59 | 1013.6 |
| 20260507201536 | 16 | 0 | 1.6 | 9.7 | 0.00 | 0.38 | 0.08 | 63 | 1013.8 |
| 20260507200516 | 16 | 45 | 1.6 | 6.4 | 0.00 | 0.38 | 0.08 | 62 | 1013.9 |
| 20260507195520 | 16 | 293 | 3.2 | 6.4 | 0.00 | 0.38 | 0.08 | 60 | 1013.9 |
| 20260507194516 | 16 | 315 | 1.6 | 4.8 | 0.00 | 0.38 | 0.08 | 64 | 1014.0 |
| 20260507193536 | 15 | 315 | 3.2 | 6.4 | 0.00 | 0.38 | 0.08 | 64 | 1014.1 |
| 20260507192516 | 16 | 0 | 4.8 | 11.3 | 0.00 | 0.38 | 0.08 | 63 | 1014.2 |
| 20260507191536 | 15 | 23 | 3.2 | 6.4 | 0.00 | 0.38 | 0.08 | 65 | 1014.3 |
| 20260507190536 | 15 | 338 | 1.6 | 4.8 | 0.00 | 0.38 | 0.08 | 68 | 1014.1 |
| 20260507185536 | 15 | 315 | 3.2 | 11.3 | 0.00 | 0.38 | 0.08 | 66 | 1014.1 |
| 20260507184516 | 15 | 315 | 1.6 | 4.8 | 0.00 | 0.38 | 0.08 | 69 | 1014.4 |
| 20260507183516 | 15 | 338 | 1.6 | 6.4 | 0.00 | 0.38 | 0.08 | 67 | 1014.2 |
| 20260507182516 | 15 | 338 | 3.2 | 8.0 | 0.00 | 0.38 | 0.08 | 68 | 1014.3 |
| 20260507181516 | 16 | 270 | 1.6 | 4.8 | 0.00 | 0.38 | 0.08 | 64 | 1014.3 |
| 20260507180516 | 15 | 293 | 3.2 | 11.3 | 0.00 | 0.38 | 0.08 | 69 | 1014.4 |
| 20260507175536 | 15 | 338 | 1.6 | 4.8 | 0.00 | 0.38 | 0.08 | 70 | 1014.2 |
| 20260507174535 | 15 | 0 | 1.6 | 6.4 | 0.00 | 0.38 | 0.08 | 72 | 1014.5 |
| 20260507173536 | 14 | 23 | 3.2 | 14.5 | 0.00 | 0.38 | 0.08 | 72 | 1014.5 |
| 20260507172536 | 14 | 315 | 3.2 | 9.7 | 0.00 | 0.38 | 0.08 | 73 | 1014.6 |
| 20260507171516 | 14 | 338 | 1.6 | 6.4 | 0.00 | 0.38 | 0.08 | 79 | 1014.6 |
| 20260507170515 | 14 | 23 | 1.6 | 3.2 | 0.00 | 0.38 | 0.08 | 79 | 1014.7 |
| 20260507165535 | 13 | 270 | 1.6 | 4.8 | 0.00 | 0.38 | 0.08 | 82 | 1014.7 |
| 20260507164516 | 13 | 225 | 1.6 | 3.2 | 0.00 | 0.38 | 0.08 | 82 | 1014.6 |
| 20260507163535 | 13 | 0.0 | 3.2 | 0.00 | 0.38 | 0.08 | 85 | 1014.5 | |
| 20260507162515 | 12 | 338 | 1.6 | 3.2 | 0.00 | 0.38 | 0.08 | 83 | 1014.6 |
| 20260507161515 | 12 | 315 | 1.6 | 4.8 | 0.00 | 0.38 | 0.08 | 85 | 1014.4 |
| 20260507160535 | 12 | 293 | 1.6 | 4.8 | 0.00 | 0.38 | 0.08 | 86 | 1014.3 |
| 20260507155515 | 12 | 248 | 1.6 | 3.2 | 0.00 | 0.38 | 0.08 | 85 | 1014.3 |
| 20260507154515 | 12 | 0.0 | 3.2 | 0.00 | 0.38 | 0.08 | 89 | 1014.3 | |
| 20260507153515 | 11 | 338 | 1.6 | 3.2 | 0.00 | 0.38 | 0.08 | 88 | 1014.1 |
| 20260507152517 | 11 | 0.0 | 3.2 | 0.00 | 0.38 | 0.08 | 88 | 1014.1 | |
| 20260507151517 | 11 | 0.0 | 1.6 | 0.00 | 0.41 | 0.08 | 89 | 1014.0 | |
| 20260507150517 | 11 | 23 | 1.6 | 3.2 | 0.00 | 0.41 | 0.08 | 88 | 1013.9 |
| 20260507145517 | 11 | 0.0 | 3.2 | 0.00 | 0.41 | 0.08 | 88 | 1013.9 | |
| 20260507144517 | 11 | 0.0 | 1.6 | 0.00 | 0.46 | 0.08 | 88 | 1013.9 | |
| 20260507143517 | 11 | 45 | 1.6 | 3.2 | 0.00 | 0.46 | 0.08 | 88 | 1013.9 |
| 20260507142517 | 11 | 45 | 1.6 | 4.8 | 0.00 | 0.46 | 0.08 | 90 | 1013.9 |
| 20260507141517 | 11 | 0 | 3.2 | 8.0 | 0.00 | 0.46 | 0.08 | 89 | 1013.9 |
| 20260507140537 | 11 | 315 | 4.8 | 8.0 | 0.00 | 0.46 | 0.08 | 89 | 1013.8 |
| 20260507135517 | 11 | 338 | 3.2 | 8.0 | 0.00 | 0.46 | 0.08 | 89 | 1013.6 |
| 20260507134517 | 11 | 338 | 1.6 | 4.8 | 0.00 | 0.46 | 0.08 | 90 | 1013.3 |
| 20260507133517 | 11 | 0 | 4.8 | 9.7 | 0.00 | 0.46 | 0.08 | 88 | 1013.3 |
| 20260507132517 | 11 | 315 | 4.8 | 9.7 | 0.00 | 0.46 | 0.08 | 90 | 1013.7 |
| 20260507131537 | 11 | 338 | 4.8 | 9.7 | 0.00 | 0.46 | 0.08 | 90 | 1013.4 |
| 20260507130537 | 11 | 315 | 6.4 | 12.9 | 0.00 | 0.46 | 0.08 | 90 | 1013.3 |
| 20260507125517 | 11 | 23 | 4.8 | 14.5 | 0.00 | 0.48 | 0.08 | 90 | 1013.3 |
| 20260507124517 | 11 | 315 | 3.2 | 11.3 | 0.00 | 0.48 | 0.08 | 91 | 1013.4 |
| 20260507123517 | 11 | 0.0 | 3.2 | 0.00 | 0.48 | 0.08 | 91 | 1013.6 | |
| 20260507122517 | 11 | 338 | 1.6 | 6.4 | 0.00 | 0.48 | 0.08 | 91 | 1013.2 |
| 20260507121517 | 11 | 0.0 | 3.2 | 0.00 | 0.51 | 0.08 | 91 | 1013.5 | |
| 20260507120517 | 11 | 0.0 | 3.2 | 0.00 | 0.53 | 0.08 | 92 | 1013.3 | |
| 20260507115537 | 11 | 0.0 | 3.2 | 0.00 | 0.56 | 0.08 | 92 | 1012.9 | |
| 20260507114517 | 11 | 0 | 1.6 | 3.2 | 0.00 | 0.56 | 0.08 | 92 | 1012.8 |
| 20260507113517 | 11 | 0.0 | 3.2 | 0.00 | 0.56 | 0.08 | 92 | 1012.9 | |
| 20260507112517 | 11 | 0.0 | 3.2 | 0.00 | 0.56 | 0.08 | 93 | 1012.9 | |
| 20260507111517 | 11 | 0.0 | 3.2 | 0.00 | 0.56 | 0.08 | 93 | 1013.0 | |
| 20260507110517 | 11 | 0.0 | 1.6 | 0.00 | 0.58 | 0.08 | 92 | 1013.0 | |
| 20260507105537 | 11 | 0.0 | 3.2 | 0.03 | 0.58 | 0.08 | 92 | 1013.0 | |
| 20260507104517 | 11 | 0.0 | 3.2 | 0.03 | 0.58 | 0.08 | 92 | 1013.0 | |
| 20260507103517 | 11 | 0.0 | 3.2 | 0.03 | 0.61 | 0.08 | 92 | 1012.8 | |
| 20260507102517 | 11 | 0.0 | 3.2 | 0.03 | 0.61 | 0.08 | 92 | 1013.0 | |
| 20260507101517 | 11 | 0.0 | 3.2 | 0.03 | 0.61 | 0.08 | 92 | 1013.0 | |
| 20260507100517 | 11 | 0.0 | 3.2 | 0.03 | 0.61 | 0.08 | 92 | 1012.6 | |
| 20260507095517 | 11 | 0.0 | 1.6 | 0.00 | 0.58 | 0.05 | 92 | 1012.8 | |
| 20260507094516 | 11 | 0.0 | 3.2 | 0.00 | 0.58 | 0.05 | 92 | 1012.4 | |
| 20260507093516 | 11 | 0.0 | 3.2 | 0.00 | 0.58 | 0.05 | 92 | 1012.9 | |
| 20260507092517 | 11 | 0.0 | 3.2 | 0.00 | 0.58 | 0.05 | 92 | 1012.8 | |
| 20260507091536 | 11 | 0.0 | 1.6 | 0.00 | 0.58 | 0.05 | 91 | 1012.4 | |
| 20260507090516 | 11 | 0.0 | 3.2 | 0.00 | 0.58 | 0.05 | 91 | 1012.4 | |
| 20260507085516 | 11 | 0 | 1.6 | 3.2 | 0.03 | 0.58 | 0.05 | 91 | 1012.3 |
| 20260507084517 | 12 | 0.0 | 3.2 | 0.03 | 0.58 | 0.05 | 91 | 1012.0 | |
| 20260507083517 | 12 | 0 | 1.6 | 4.8 | 0.03 | 0.58 | 0.05 | 90 | 1012.2 |
| 20260507082516 | 12 | 315 | 4.8 | 8.0 | 0.03 | 0.58 | 0.05 | 90 | 1012.8 |
| 20260507081517 | 12 | 315 | 1.6 | 9.7 | 0.03 | 0.58 | 0.05 | 91 | 1012.8 |
| 20260507080516 | 12 | 338 | 1.6 | 3.2 | 0.03 | 0.58 | 0.05 | 91 | 1012.6 |
| 20260507075516 | 12 | 315 | 3.2 | 6.4 | 0.00 | 0.56 | 0.03 | 90 | 1012.6 |
| 20260507074516 | 12 | 315 | 3.2 | 8.0 | 0.00 | 0.56 | 0.03 | 91 | 1012.6 |
| 20260507073516 | 12 | 68 | 3.2 | 8.0 | 0.00 | 0.56 | 0.03 | 91 | 1012.6 |
| 20260507072516 | 12 | 0.0 | 1.6 | 0.00 | 0.56 | 0.03 | 92 | 1012.6 | |
| 20260507071516 | 12 | 293 | 1.6 | 6.4 | 0.00 | 0.56 | 0.03 | 92 | 1012.7 |
| 20260507070536 | 12 | 0.0 | 3.2 | 0.00 | 0.56 | 0.03 | 92 | 1012.3 | |
| 20260507065516 | 12 | 0.0 | 3.2 | 0.00 | 0.56 | 0.03 | 93 | 1012.6 | |
| 20260507064516 | 12 | 0.0 | 1.6 | 0.03 | 0.56 | 0.03 | 93 | 1012.6 | |
| 20260507063516 | 12 | 338 | 3.2 | 6.4 | 0.03 | 0.56 | 0.03 | 92 | 1012.6 |
| 20260507062516 | 12 | 113 | 1.6 | 6.4 | 0.03 | 0.56 | 0.03 | 92 | 1012.8 |
| 20260507061516 | 13 | 338 | 3.2 | 8.0 | 0.03 | 0.56 | 0.03 | 91 | 1013.1 |
| 20260507060536 | 13 | 0 | 4.8 | 11.3 | 0.03 | 0.56 | 0.03 | 91 | 1013.1 |
| 20260507055517 | 13 | 293 | 6.4 | 12.9 | 0.03 | 0.58 | 0.03 | 91 | 1013.3 |
| 20260507054516 | 13 | 315 | 4.8 | 12.9 | 0.00 | 0.56 | 0.00 | 91 | 1013.2 |
| 20260507053516 | 13 | 315 | 3.2 | 12.9 | 0.00 | 0.56 | 0.00 | 91 | 1013.5 |
| 20260507052536 | 14 | 315 | 3.2 | 9.7 | 0.00 | 0.56 | 0.00 | 92 | 1013.6 |
| 20260507051517 | 14 | 338 | 1.6 | 6.4 | 0.00 | 0.56 | 0.00 | 92 | 1013.5 |
| 20260507050516 | 14 | 338 | 3.2 | 12.9 | 0.00 | 0.56 | 0.00 | 92 | 1013.2 |
| 20260507045516 | 14 | 315 | 3.2 | 8.0 | 0.00 | 0.56 | 0.00 | 92 | 1013.0 |
| 20260507044516 | 15 | 315 | 1.6 | 3.2 | 0.00 | 0.56 | 0.00 | 92 | 1012.8 |
| 20260507043516 | 15 | 0 | 1.6 | 4.8 | 0.00 | 0.56 | 0.00 | 92 | 1012.7 |
| 20260507042516 | 15 | 315 | 1.6 | 3.2 | 0.00 | 0.56 | 0.00 | 92 | 1012.8 |
| 20260507041516 | 15 | 23 | 1.6 | 3.2 | 0.03 | 0.56 | 0.00 | 92 | 1012.8 |
| 20260507040516 | 15 | 0.0 | 3.2 | 0.03 | 0.56 | 0.00 | 92 | 1013.1 | |
| 20260507035517 | 15 | 0.0 | 3.2 | 0.03 | 0.56 | 0.56 | 92 | 1013.1 | |
| 20260507034517 | 15 | 0 | 1.6 | 4.8 | 0.03 | 0.58 | 0.56 | 93 | 1013.7 |
| 20260507033517 | 15 | 0.0 | 3.2 | 0.03 | 0.58 | 0.56 | 93 | 1013.7 | |
| 20260507032537 | 15 | 0.0 | 3.2 | 0.03 | 0.58 | 0.56 | 93 | 1013.7 | |
| 20260507031517 | 15 | 315 | 1.6 | 3.2 | 0.00 | 0.56 | 0.53 | 93 | 1014.1 |
| 20260507030517 | 15 | 0.0 | 3.2 | 0.00 | 0.56 | 0.53 | 93 | 1013.6 | |
| 20260507025517 | 15 | 0.0 | 0.0 | 0.00 | 0.56 | 0.53 | 93 | 1013.8 | |
| 20260507024517 | 15 | 0.0 | 3.2 | 0.00 | 0.56 | 0.53 | 93 | 1013.4 | |
| 20260507023517 | 15 | 0.0 | 3.2 | 0.00 | 0.56 | 0.53 | 93 | 1013.3 | |
| 20260507022516 | 15 | 0.0 | 3.2 | 0.00 | 0.56 | 0.53 | 93 | 1013.6 | |
| 20260507021517 | 15 | 0.0 | 1.6 | 0.00 | 0.56 | 0.53 | 92 | 1013.4 | |
| 20260507020516 | 15 | 0.0 | 0.0 | 0.03 | 0.56 | 0.53 | 92 | 1013.2 | |
| 20260507015516 | 15 | 0.0 | 1.6 | 0.03 | 0.56 | 0.53 | 92 | 1013.7 | |
| 20260507014517 | 16 | 338 | 3.2 | 6.4 | 0.03 | 0.56 | 0.53 | 91 | 1013.0 |
| 20260507013516 | 16 | 0.0 | 3.2 | 0.03 | 0.56 | 0.53 | 91 | 1013.3 | |
| 20260507012517 | 16 | 0.0 | 3.2 | 0.03 | 0.56 | 0.53 | 91 | 1013.3 | |
| 20260507011536 | 16 | 315 | 1.6 | 6.4 | 0.03 | 0.56 | 0.53 | 91 | 1014.1 |
| 20260507010516 | 16 | 113 | 1.6 | 4.8 | 0.03 | 0.53 | 0.51 | 92 | 1014.2 |
| 20260507005556 | 16 | 315 | 3.2 | 11.3 | 0.05 | 0.53 | 0.51 | 92 | 1014.5 |
| 20260507004516 | 16 | 338 | 1.6 | 3.2 | 0.05 | 0.53 | 0.51 | 92 | 1014.2 |
| 20260507003519 | 16 | 315 | 1.6 | 3.2 | 0.08 | 0.53 | 0.51 | 92 | 1013.6 |
| 20260507002537 | 17 | 0.0 | 3.2 | 0.20 | 0.53 | 0.51 | 91 | 1013.0 | |
| 20260507001516 | 17 | 0.0 | 3.2 | 0.20 | 0.53 | 0.51 | 91 | 1013.2 | |
| 20260507000516 | 17 | 338 | 3.2 | 4.8 | 0.20 | 0.51 | 0.48 | 91 | 1013.5 |
| 20260506235516 | 17 | 180 | 1.6 | 3.2 | 0.20 | 0.48 | 0.46 | 91 | 1012.8 |
| 20260506234516 | 17 | 270 | 1.6 | 3.2 | 0.20 | 0.48 | 0.46 | 90 | 1012.8 |
| 20260506233516 | 17 | 338 | 3.2 | 8.0 | 0.18 | 0.46 | 0.43 | 88 | 1012.5 |
| 20260506232516 | 18 | 270 | 6.4 | 12.9 | 0.05 | 0.33 | 0.30 | 88 | 1013.0 |
| 20260506231536 | 18 | 180 | 3.2 | 8.0 | 0.05 | 0.33 | 0.30 | 89 | 1012.3 |
| 20260506230517 | 19 | 180 | 3.2 | 12.9 | 0.03 | 0.30 | 0.28 | 88 | 1012.7 |
| 20260506225536 | 19 | 203 | 3.2 | 8.0 | 0.00 | 0.28 | 0.25 | 87 | 1012.6 |
| 20260506224616 | 19 | 225 | 4.8 | 12.9 | 0.00 | 0.28 | 0.25 | 86 | 1012.7 |
| 20260506223516 | 19 | 180 | 3.2 | 8.0 | 0.00 | 0.28 | 0.25 | 86 | 1012.6 |